Time,TemperatureF,DewpointF,PressureIn,WindDirection,WindDirectionDegrees,WindSpeedMPH,WindSpeedGustMPH,Humidity,HourlyPrecipIn,Conditions,Clouds,dailyrainin,SoftwareType,DateUTC
2013-08-19 00:00:00,86.0,62.0,-100.00,North,-999,-999.0,-999.0,45,0.00,,,0.00,,2013-08-19 07:00:00,
2013-08-19 00:52:00,86.0,62.0,-100.00,North,-999,-999.0,-999.0,45,0.00,,,0.00,,2013-08-19 07:52:00,
2013-08-19 01:00:00,86.0,62.0,-100.00,North,-999,-999.0,-999.0,45,0.00,,,0.00,,2013-08-19 08:00:00,
2013-08-19 01:52:00,86.0,62.0,-100.00,North,-999,-999.0,-999.0,45,0.00,,,0.00,,2013-08-19 08:52:00,
2013-08-19 02:00:00,87.0,61.0,-100.00,North,-999,-999.0,-999.0,42,0.00,,,0.00,,2013-08-19 09:00:00,
2013-08-19 02:53:00,87.0,61.0,-100.00,North,-999,-999.0,-999.0,42,0.00,,,0.00,,2013-08-19 09:53:00,
2013-08-19 03:00:00,86.0,59.0,-100.00,North,-999,-999.0,-999.0,41,0.00,,,0.00,,2013-08-19 10:00:00,
2013-08-19 03:52:00,86.0,59.0,-100.00,North,-999,-999.0,-999.0,41,0.00,,,0.00,,2013-08-19 10:52:00,
2013-08-19 04:00:00,85.0,54.0,-100.00,North,-999,-999.0,-999.0,35,0.00,,,0.00,,2013-08-19 11:00:00,
2013-08-19 04:52:00,85.0,54.0,-100.00,North,-999,-999.0,-999.0,35,0.00,,,0.00,,2013-08-19 11:52:00,
2013-08-19 05:00:00,85.0,58.0,-100.00,North,-999,-999.0,-999.0,41,0.00,,,0.00,,2013-08-19 12:00:00,
2013-08-19 05:52:00,85.0,58.0,-100.00,North,-999,-999.0,-999.0,41,0.00,,,0.00,,2013-08-19 12:52:00,
2013-08-19 06:00:00,83.0,62.0,-100.00,North,-999,-999.0,-999.0,49,0.00,,,0.00,,2013-08-19 13:00:00,
2013-08-19 06:52:00,83.0,62.0,-100.00,North,-999,-999.0,-999.0,49,0.00,,,0.00,,2013-08-19 13:52:00,
2013-08-19 07:00:00,83.0,58.0,-100.00,North,-999,-999.0,-999.0,43,0.00,,,0.00,,2013-08-19 14:00:00,
2013-08-19 07:52:00,83.0,58.0,-100.00,North,-999,-999.0,-999.0,43,0.00,,,0.00,,2013-08-19 14:52:00,
2013-08-19 08:00:00,86.0,52.0,-100.00,North,-999,-999.0,-999.0,31,0.00,,,0.00,,2013-08-19 15:00:00,
2013-08-19 08:54:00,86.0,52.0,-100.00,North,-999,-999.0,-999.0,31,0.00,,,0.00,,2013-08-19 15:54:00,
2013-08-19 09:00:00,90.0,54.0,-100.00,North,-999,-999.0,-999.0,30,0.00,,,0.00,,2013-08-19 16:00:00,
2013-08-19 10:00:00,98.0,50.0,-100.00,North,-999,-999.0,-999.0,20,0.00,,,0.00,,2013-08-19 17:00:00,
2013-08-19 10:57:00,98.0,50.0,-100.00,North,-999,-999.0,-999.0,20,0.00,,,0.00,,2013-08-19 17:57:00,
2013-08-19 11:00:00,102.0,50.0,-100.00,North,-999,-999.0,-999.0,18,0.00,,,0.00,,2013-08-19 18:00:00,
2013-08-19 12:00:00,103.0,52.0,-100.00,North,-999,-999.0,-999.0,18,0.00,,,0.00,,2013-08-19 19:00:00,
2013-08-19 12:59:00,103.0,52.0,-100.00,North,-999,-999.0,-999.0,18,0.00,,,0.00,,2013-08-19 19:59:00,
2013-08-19 13:00:00,105.0,51.0,-100.00,North,-999,-999.0,-999.0,17,0.00,,,0.00,,2013-08-19 20:00:00,
2013-08-19 14:00:00,108.0,50.0,-100.00,North,-999,-999.0,-999.0,15,0.00,,,0.00,,2013-08-19 21:00:00,
2013-08-19 14:55:00,108.0,50.0,-100.00,North,-999,-999.0,-999.0,15,0.00,,,0.00,,2013-08-19 21:55:00,
2013-08-19 15:00:00,108.0,51.0,-100.00,North,-999,-999.0,-999.0,15,0.00,,,0.00,,2013-08-19 22:00:00,
2013-08-19 15:55:00,108.0,51.0,-100.00,North,-999,-999.0,-999.0,15,0.00,,,0.00,,2013-08-19 22:55:00,
2013-08-19 16:00:00,96.0,58.0,-100.00,North,-999,-999.0,-999.0,29,0.00,,,0.00,,2013-08-19 23:00:00,
2013-08-19 16:55:00,96.0,58.0,-100.00,North,-999,-999.0,-999.0,29,0.00,,,0.00,,2013-08-19 23:55:00,
2013-08-19 19:00:00,87.0,59.0,-100.00,North,-999,-999.0,-999.0,39,-99.99,,,0.83,,2013-08-20 02:00:00,
2013-08-19 19:52:00,87.0,59.0,-100.00,North,-999,-999.0,-999.0,39,-99.99,,,0.83,,2013-08-20 02:52:00,
2013-08-19 21:00:00,88.0,60.0,-100.00,North,-999,-999.0,-999.0,39,0.00,,,0.83,,2013-08-20 04:00:00,
2013-08-19 21:53:00,88.0,60.0,-100.00,North,-999,-999.0,-999.0,39,0.00,,,0.83,,2013-08-20 04:53:00,
2013-08-19 22:00:00,89.0,56.0,-100.00,North,-999,-999.0,-999.0,33,0.00,,,0.83,,2013-08-20 05:00:00,
2013-08-19 22:52:00,89.0,56.0,-100.00,North,-999,-999.0,-999.0,33,0.00,,,0.83,,2013-08-20 05:52:00,
2013-08-19 23:00:00,88.0,56.0,-100.00,North,-999,-999.0,-999.0,33,0.00,,,0.83,,2013-08-20 06:00:00,
2013-08-19 23:52:00,88.0,56.0,-100.00,North,-999,-999.0,-999.0,33,0.00,,,0.83,,2013-08-20 06:52:00,